Wind_Speed
12 12 11 11 11 11 11 11 11 11 11 10 10 10 10 10 10 10 10 10 11 12 12 12 12 13 13 13 13 13 14 14 15 15 15 16 16 16 17 17 18 19 19
11 11 11 11 11 11 11 11 11 11 11 11 11 11 11 11 11 11 12 12 12 12 12 13 13 13 14 14 14 15 15 16 16 16 16 16 17 17 17 18 19 20 21
11 12 11 12 12 11 11 11 11 11 11 11 12 12 11 11 11 12 12 12 13 13 13 14 14 14 15 15 15 16 16 17 17 17 17 18 18 18 19 20 20 21 22
12 12 12 12 12 11 12 12 12 13 12 12 12 12 12 12 12 12 13 13 14 14 14 15 15 16 16 16 17 17 17 18 18 18 19 19 19 20 21 21 22 22 23
13 12 13 13 12 12 12 12 13 13 13 14 13 14 14 13 14 14 14 15 14 15 16 16 16 16 17 17 18 18 18 19 19 19 19 20 20 21 22 22 23 23 24
13 13 13 13 13 13 13 13 13 14 14 14 15 15 15 15 16 16 16 15 15 16 17 17 17 17 18 18 19 19 19 19 19 20 20 21 21 22 23 23 23 24 24
13 13 13 13 13 12 12 13 13 14 14 15 15 15 16 16 16 16 17 17 17 17 18 18 18 18 19 19 19 18 18 19 20 20 21 22 22 23 23 23 24 25 25
14 14 14 14 13 13 13 13 13 13 14 15 16 16 16 17 18 18 18 18 18 18 18 18 18 18 19 19 19 18 19 20 21 21 22 23 23 23 24 24 25 26 26
14 14 14 14 14 14 14 14 14 14 15 15 16 17 18 18 19 19 19 18 18 19 19 19 19 19 20 19 19 19 20 21 22 22 23 23 23 24 25 26 26 26 27
15 15 15 15 15 15 16 15 15 16 16 16 16 18 18 19 19 19 19 19 19 19 20 20 20 21 20 20 21 21 21 22 22 23 23 23 24 25 26 27 28 28 28
16 16 16 16 16 16 17 17 16 16 16 17 18 19 19 19 19 19 20 20 20 20 21 21 21 21 21 22 22 22 23 23 23 23 24 25 25 26 27 28 29 29 29
17 17 17 17 17 18 18 18 18 18 18 18 19 19 20 19 20 20 21 22 22 22 22 22 22 22 22 23 24 24 24 25 25 25 26 27 27 28 29 30 30 30 30
17 18 18 18 18 18 18 18 18 19 19 19 19 20 20 20 21 21 22 23 24 24 23 23 24 24 25 25 26 26 26 27 27 28 29 29 30 30 31 31 32 32 32
18 18 18 18 18 19 19 19 20 20 21 21 21 21 21 21 21 22 23 23 24 25 25 25 25 26 27 27 27 27 28 28 29 30 31 32 32 33 33 34 34 34 34
19 19 19 19 19 19 20 20 21 21 22 22 22 22 22 22 23 24 24 24 25 26 26 27 27 28 28 29 29 30 30 31 31 32 33 34 34 35 35 36 36 36 36
21 21 21 21 21 21 21 22 22 22 23 23 23 23 24 25 25 25 25 26 27 28 28 28 28 29 29 29 30 31 32 33 33 34 35 35 36 37 37 37 38 38 39
23 23 23 23 23 23 23 23 24 24 25 25 25 25 26 26 26 27 27 28 29 29 29 29 29 30 30 31 32 32 33 34 35 35 35 36 37 38 38 38 39 39 40
24 24 24 25 25 25 25 25 25 26 26 27 27 27 27 27 27 28 29 30 30 30 30 30 30 31 32 32 33 33 34 35 35 36 37 38 39 39 39 39 40 40 41
26 26 26 27 27 27 27 27 27 28 28 28 28 28 28 29 30 30 31 31 31 31 31 32 33 33 33 34 35 35 36 36 37 37 38 39 40 40 40 40 40 41 41
28 28 28 28 28 28 29 29 29 29 29 29 29 29 29 30 30 31 31 32 32 33 33 34 35 35 36 37 37 37 38 38 39 39 39 39 40 41 41 41 41 41 42
30 30 30 30 30 30 30 30 30 30 30 30 31 31 31 31 32 32 33 34 34 34 35 37 37 38 38 38 39 39 39 39 40 40 41 41 41 41 41 42 42 42 43
32 31 31 31 32 32 32 32 31 31 31 31 32 31 32 33 34 34 35 37 37 36 36 37 38 38 38 38 39 40 40 40 41 42 42 42 43 42 42 42 42 43 43
33 33 33 33 33 33 32 32 32 32 33 32 32 33 34 34 35 36 36 37 37 37 37 37 38 38 39 40 40 41 41 41 42 42 42 42 43 43 43 43 43 43 43
34 34 34 34 34 34 33 33 33 33 33 33 34 34 35 35 36 36 37 37 37 37 38 38 39 39 39 40 40 41 41 42 42 42 42 42 43 43 43 44 43 43 42
34 34 34 35 34 34 34 34 34 34 34 34 35 35 36 36 37 37 38 38 37 37 38 38 39 39 39 40 41 41 41 41 41 42 42 43 43 43 43 44 43 43 43
35 35 34 34 34 35 35 35 35 35 35 35 36 36 36 37 38 38 38 38 38 38 39 39 40 40 40 41 41 41 41 42 42 42 43 43 43 43 43 43 43 43 44
Wind_Direction
241 242 245 246 249 250 252 253 251 253 256 259 266 272 277 281 284 286 291 293 292 293 295 297 298 300 302 302 303 303 303 304 304 303 303 303 303 303 303 302 301 300 299
243 246 251 251 254 255 255 255 255 255 257 261 269 273 277 282 284 286 289 294 296 295 295 296 298 299 300 300 301 302 302 302 303 303 302 302 301 301 301 302 302 302 301
244 248 252 254 256 255 256 257 257 259 259 263 269 272 275 281 285 285 287 291 294 296 297 297 298 299 300 299 299 300 300 300 302 302 301 301 301 300 301 302 302 302 302
244 248 252 254 257 257 257 259 260 260 260 263 267 268 271 277 280 284 287 288 290 292 295 297 299 299 300 299 299 299 299 300 301 301 301 301 301 300 301 302 302 303 303
245 249 252 253 257 262 262 262 264 264 262 266 267 268 271 275 278 281 284 285 288 290 292 295 298 300 301 300 299 299 299 300 301 302 302 301 301 301 302 301 302 303 303
247 250 252 253 257 262 265 266 267 268 266 267 268 269 271 275 277 280 285 285 287 290 292 294 297 299 301 301 299 299 298 299 300 301 301 301 302 302 301 301 302 302 302
251 253 256 255 259 263 267 269 270 270 269 267 269 271 273 275 277 280 283 284 286 289 290 293 296 298 300 301 299 298 297 297 297 299 300 301 302 303 303 303 304 303 303
253 256 259 258 259 261 265 268 272 274 273 272 272 274 275 277 279 282 285 284 284 286 289 292 294 298 300 300 300 299 298 298 298 299 300 301 302 302 303 303 303 304 303
254 257 259 257 259 261 263 268 271 275 277 276 274 275 277 279 281 283 283 284 285 286 288 290 292 295 298 299 299 299 299 299 301 301 300 302 302 303 303 305 305 304 302
255 257 257 259 261 264 264 267 272 275 277 277 276 276 278 280 282 282 283 284 286 289 290 291 292 294 296 298 299 299 300 301 302 301 302 302 303 304 305 305 305 303 302
254 257 259 262 263 264 265 267 270 273 278 278 278 278 278 279 280 280 282 284 286 288 291 292 293 294 294 296 297 299 300 301 301 301 303 303 303 304 304 304 303 303 302
256 258 260 262 264 264 265 267 269 273 278 280 280 280 279 279 280 280 282 283 286 288 291 292 292 292 293 294 295 297 298 298 300 301 301 302 302 303 303 303 303 302 301
259 260 262 263 265 266 268 269 270 273 278 281 282 282 281 280 281 282 284 285 286 288 290 292 292 292 292 292 293 294 295 296 298 299 300 301 300 301 302 302 302 301 301
262 264 264 265 266 267 269 271 275 279 280 281 281 282 281 280 282 284 285 285 287 288 289 291 292 292 293 293 292 293 294 295 296 297 298 299 299 299 300 301 301 300 300
262 263 264 266 267 269 271 274 277 280 282 284 283 282 284 284 284 285 286 287 289 290 290 291 292 292 293 293 292 293 294 295 296 296 298 299 298 299 299 299 299 299 298
263 264 266 268 268 269 271 274 276 279 281 282 282 283 284 285 285 286 288 288 288 290 290 291 292 293 294 294 293 293 293 294 295 296 298 299 301 301 300 299 298 299 299
262 265 267 269 269 270 272 273 275 278 281 282 281 281 283 285 286 288 289 289 289 290 290 291 291 292 292 293 293 294 295 295 295 296 297 299 301 301 300 299 299 299 299
262 264 267 268 269 270 272 272 275 278 280 281 280 280 281 283 285 287 288 288 289 289 289 290 291 292 294 294 295 295 297 297 297 297 298 299 301 301 301 300 299 299 299
263 266 268 269 270 271 272 274 276 279 280 280 280 280 281 282 284 286 287 287 288 288 288 289 291 292 293 295 295 295 295 297 297 298 299 300 301 301 301 301 300 300 300
264 266 268 269 270 272 273 275 277 278 279 279 279 280 281 283 284 285 286 287 287 287 287 289 291 292 292 293 294 295 295 295 296 298 300 300 301 301 301 301 301 301 301
265 267 268 270 271 272 273 274 276 277 278 279 280 280 282 283 284 285 286 287 287 287 287 289 290 291 293 293 294 295 296 296 297 297 298 299 300 300 300 301 300 301 301
265 267 268 270 271 272 272 273 274 276 277 279 280 280 282 284 285 285 287 287 287 287 288 289 290 291 292 293 294 294 295 296 296 296 297 298 299 299 300 300 301 302 302
264 267 269 270 271 271 271 272 274 276 277 279 279 280 282 285 286 287 288 289 289 289 290 290 291 291 292 294 295 295 296 296 296 296 297 297 298 298 298 299 300 300 301
265 267 268 269 270 270 271 272 274 275 277 278 280 281 283 285 287 289 289 289 288 288 289 290 291 292 293 294 294 295 296 297 297 297 298 298 299 298 298 299 299 300 300
266 268 269 270 270 270 271 273 274 276 277 278 280 282 284 286 287 288 289 289 288 288 289 291 292 292 293 293 294 295 295 296 297 298 298 299 299 299 299 299 299 299 300
266 268 270 270 270 271 272 274 275 277 278 279 280 282 284 286 287 288 289 289 288 288 289 291 292 292 292 293 294 294 295 296 296 297 298 299 299 299 299 299 299 300 301
Height
5863 5864 5865 5865 5866 5867 5868 5868 5869 5869 5869 5870 5870 5870 5869 5869 5868 5867 5866 5865 5864 5863 5862 5860 5859 5857 5855 5854 5852 5850 5848 5846 5844 5842 5840 5838 5836 5833 5831 5829 5827 5824 5822
5860 5861 5862 5863 5863 5864 5865 5865 5866 5866 5867 5867 5867 5867 5866 5866 5865 5864 5863 5862 5861 5860 5858 5857 5855 5854 5852 5850 5848 5846 5844 5842 5840 5838 5836 5834 5831 5829 5827 5824 5822 5819 5817
5858 5858 5859 5860 5860 5861 5862 5862 5862 5863 5863 5864 5864 5864 5863 5863 5862 5861 5860 5859 5858 5856 5855 5854 5852 5850 5848 5846 5844 5843 5841 5838 5836 5834 5832 5829 5827 5825 5822 5820 5817 5814 5811
5855 5855 5856 5857 5857 5858 5858 5859 5859 5859 5860 5860 5860 5860 5860 5859 5859 5858 5857 5855 5854 5853 5851 5850 5848 5846 5844 5842 5840 5838 5836 5834 5832 5829 5827 5825 5822 5820 5817 5815 5812 5809 5806
5851 5852 5853 5854 5854 5854 5855 5855 5855 5856 5856 5856 5856 5856 5856 5855 5855 5854 5853 5852 5850 5849 5847 5846 5844 5842 5840 5838 5836 5834 5832 5830 5827 5825 5822 5820 5818 5815 5812 5809 5806 5803 5800
5848 5849 5849 5850 5850 5851 5851 5851 5852 5852 5852 5852 5852 5852 5852 5852 5851 5850 5849 5848 5846 5845 5843 5841 5839 5838 5835 5833 5831 5829 5827 5825 5823 5820 5818 5815 5812 5810 5807 5803 5800 5797 5794
5844 5845 5846 5846 5846 5847 5847 5848 5848 5848 5848 5848 5848 5848 5847 5847 5846 5846 5844 5843 5842 5840 5839 5837 5835 5833 5831 5829 5826 5824 5822 5819 5817 5815 5813 5810 5807 5804 5801 5798 5794 5791 5788
5841 5841 5842 5842 5843 5843 5844 5844 5844 5844 5843 5843 5843 5843 5843 5842 5841 5840 5839 5838 5837 5835 5834 5832 5830 5828 5826 5824 5821 5819 5817 5814 5812 5810 5807 5804 5801 5798 5795 5792 5788 5785 5781
5837 5837 5838 5838 5839 5839 5840 5840 5840 5839 5839 5839 5838 5838 5838 5837 5836 5835 5834 5833 5831 5830 5829 5827 5825 5823 5821 5818 5816 5814 5811 5809 5806 5804 5801 5798 5795 5791 5788 5785 5782 5778 5775
5832 5833 5834 5834 5835 5835 5835 5835 5835 5835 5834 5834 5833 5833 5832 5832 5831 5830 5829 5827 5826 5825 5823 5821 5819 5818 5815 5813 5811 5808 5806 5803 5800 5798 5795 5792 5788 5785 5781 5778 5775 5771 5768
5828 5829 5829 5830 5830 5830 5830 5830 5830 5830 5829 5829 5828 5827 5827 5826 5825 5824 5823 5822 5820 5819 5817 5816 5814 5812 5810 5807 5805 5803 5800 5797 5794 5791 5788 5785 5782 5778 5775 5771 5767 5764 5760
5823 5824 5824 5825 5825 5825 5825 5825 5825 5824 5824 5823 5822 5822 5821 5820 5819 5818 5817 5816 5814 5813 5811 5809 5808 5806 5804 5801 5799 5797 5794 5791 5788 5785 5782 5778 5775 5771 5768 5764 5760 5756 5752
5818 5818 5819 5819 5819 5819 5820 5819 5819 5819 5818 5817 5816 5816 5815 5814 5813 5811 5810 5809 5807 5806 5804 5803 5801 5799 5797 5794 5792 5789 5787 5784 5780 5777 5774 5771 5767 5763 5759 5756 5752 5748 5744
5812 5813 5813 5813 5814 5814 5814 5813 5813 5813 5812 5811 5810 5809 5808 5807 5806 5805 5803 5802 5800 5799 5797 5795 5793 5791 5789 5786 5784 5781 5778 5775 5772 5769 5766 5762 5758 5755 5751 5747 5743 5739 5736
5806 5807 5807 5808 5808 5808 5807 5807 5807 5806 5806 5805 5804 5803 5802 5801 5799 5798 5796 5795 5793 5791 5789 5787 5785 5783 5780 5777 5775 5772 5769 5767 5763 5760 5757 5753 5749 5745 5741 5738 5734 5730 5726
5800 5801 5801 5801 5801 5801 5801 5801 5800 5800 5799 5797 5796 5795 5794 5793 5791 5790 5789 5787 5785 5783 5781 5779 5777 5774 5771 5769 5766 5763 5760 5757 5754 5750 5747 5743 5739 5735 5731 5727 5723 5719 5715
5793 5794 5794 5794 5794 5794 5794 5793 5793 5792 5791 5790 5789 5788 5787 5785 5783 5782 5780 5778 5777 5774 5772 5770 5768 5765 5762 5760 5756 5753 5750 5747 5744 5740 5737 5733 5729 5725 5721 5717 5713 5708 5704
5786 5786 5786 5786 5786 5786 5786 5786 5785 5784 5784 5782 5781 5780 5778 5777 5775 5773 5772 5770 5768 5765 5763 5761 5759 5756 5753 5750 5747 5744 5741 5737 5734 5730 5727 5723 5719 5714 5710 5706 5701 5697 5693
5778 5778 5779 5779 5778 5778 5778 5777 5777 5776 5775 5774 5773 5771 5770 5768 5767 5765 5762 5760 5758 5756 5754 5751 5749 5746 5744 5741 5737 5734 5731 5727 5724 5720 5716 5712 5708 5703 5699 5694 5690 5686 5681
5769 5770 5770 5770 5770 5769 5769 5769 5768 5767 5766 5765 5764 5762 5761 5759 5757 5755 5753 5751 5748 5746 5744 5741 5739 5736 5733 5730 5727 5724 5720 5717 5713 5709 5705 5701 5697 5692 5688 5683 5679 5674 5670
5760 5761 5761 5761 5761 5760 5760 5759 5759 5758 5757 5756 5754 5753 5751 5750 5748 5746 5743 5741 5738 5736 5733 5731 5728 5725 5722 5719 5716 5713 5709 5706 5702 5698 5694 5690 5686 5681 5677 5672 5668 5663 5658
5751 5751 5751 5751 5751 5750 5750 5749 5749 5748 5747 5746 5744 5743 5741 5739 5737 5735 5733 5730 5727 5725 5722 5719 5716 5714 5711 5708 5704 5701 5698 5694 5690 5686 5682 5678 5674 5670 5665 5661 5656 5651 5646
5740 5740 5741 5741 5740 5740 5740 5739 5738 5738 5736 5735 5734 5732 5731 5729 5726 5724 5722 5719 5716 5714 5711 5708 5705 5702 5699 5696 5693 5689 5686 5682 5678 5674 5670 5666 5662 5657 5653 5649 5644 5640 5635
5729 5729 5729 5729 5729 5729 5729 5728 5728 5727 5726 5724 5723 5721 5720 5718 5715 5713 5710 5707 5705 5702 5700 5697 5694 5691 5687 5684 5681 5677 5673 5669 5666 5662 5658 5653 5649 5645 5641 5636 5632 5627 5623
5718 5718 5718 5718 5718 5718 5718 5717 5717 5716 5714 5713 5712 5710 5708 5706 5704 5701 5698 5696 5693 5691 5688 5685 5682 5679 5676 5672 5669 5665 5661 5657 5653 5649 5645 5641 5637 5633 5628 5624 5620 5615 5611
5707 5707 5707 5707 5707 5707 5706 5706 5705 5704 5703 5702 5700 5699 5697 5694 5692 5689 5686 5684 5681 5679 5676 5673 5670 5667 5663 5660 5657 5653 5649 5645 5641 5637 5633 5629 5625 5621 5616 5612 5608 5603 5599